Weather History for KBWG - August, 2014

Change the Weather History Date:

Saturday, August 16, 2014

  Actual Average Record
Temperature  
Mean Temperature 76 °F 78 °F  
Max Temperature 84 °F 89 °F 106 °F (2007)
Min Temperature 68 °F 66 °F 50 °F (1963)
Degree Days  
Heating Degree Days 0 0  
Month to date heating degree days 0 0  
Since 1 June heating degree days 0 5  
Since 1 July heating degree days 0 0  
Cooling Degree Days 11 13  
Month to date cooling degree days 186 209  
Year to date cooling degree days 1049 1090  
Since 1 June cooling degree days 852 937  
Growing Degree Days 26 (Base 50)    
Moisture  
Dew Point 65 °F    
Average Humidity 67    
Maximum Humidity 87    
Minimum Humidity 47    
Precipitation  
Precipitation 0.00 in 0.11 in 1.91 in (1986)
Month to date precipitation 4.60 1.60  
Year to date precipitation 29.43 31.83  
Snow  
Snow 0.00 in 0.00 in 0.00 in ()
Month to date snowfall 0.0 0.0  
Since 1 June snowfall 0.0 0.0  
Since 1 July snowfall 0.0 0.0  
Snow Depth 0.00 in    
Sea Level Pressure  
Sea Level Pressure 29.99 in    
Wind  
Wind Speed 3 mph (SE)    
Max Wind Speed 10 mph    
Max Gust Speed 14 mph    
Visibility 10 miles    
Events      
T = Trace of Precipitation, MM = Missing Value Source: NWS Daily Summary

Daily Weather History Graph

Daily Weather History Graph

Search for Another Location

Airport or City:

Trip Planner

Search our weather history database for the weather conditions in past years. The results will help you decide how hot, cold, wet, or windy it might be!

Date:

Astronomy

Aug. 16, 2014 Rise Set
Actual Time 6:03 AM CDT 7:35 PM CDT
Civil Twilight 5:35 AM CDT 8:03 PM CDT
Nautical Twilight 5:02 AM CDT 8:36 PM CDT
Astronomical Twilight 4:27 AM CDT 9:11 PM CDT
Moon 11:30 PM CDT (8/16) 12:38 PM CDT (8/16)
Length of Visible Light 14h 27m
Length of Day
13h 32m
Waning Gibbous, 58% of the Moon is Illuminated
Aug 16
Waning Gibbous
Aug 17
Last Quarter
Aug 25
New
Sep 2
First Quarter
Sep 8
Full

Hourly Weather History & Observations

Time (CDT) Temp. Heat Index Dew Point Humidity Pressure Visibility Wind Dir Wind Speed Gust Speed Precip Events Conditions
1:53 AM 71.1 °F - 64.0 °F 78% 29.99 in 10.0 mi Calm Calm - N/A   Clear
2:53 AM 70.0 °F - 64.9 °F 84% 29.99 in 10.0 mi Calm Calm - N/A   Clear
3:53 AM 69.1 °F - 64.9 °F 87% 29.99 in 10.0 mi Calm Calm - N/A   Partly Cloudy
4:53 AM 68.0 °F - 64.9 °F 90% 29.99 in 10.0 mi ENE 3.5 mph - N/A   Clear
5:53 AM 69.1 °F - 64.9 °F 87% 29.99 in 10.0 mi Calm Calm - N/A   Clear
6:53 AM 69.1 °F - 64.9 °F 87% 30.00 in 10.0 mi ENE 3.5 mph - N/A   Clear
7:53 AM 70.0 °F - 64.0 °F 81% 30.00 in 10.0 mi SE 5.8 mph - N/A   Scattered Clouds
8:53 AM 73.0 °F - 64.9 °F 76% 30.02 in 10.0 mi Calm Calm - N/A   Partly Cloudy
9:53 AM 75.0 °F - 64.9 °F 71% 30.04 in 10.0 mi SSW 8.1 mph - N/A   Clear
10:53 AM 79.0 °F - 64.9 °F 62% 30.04 in 10.0 mi Variable 6.9 mph - N/A   Clear
11:53 AM 81.0 °F 82.7 °F 64.9 °F 58% 30.03 in 10.0 mi West 6.9 mph - N/A   Clear
12:53 PM 81.0 °F 82.2 °F 63.0 °F 54% 30.03 in 10.0 mi WSW 6.9 mph - N/A   Clear
1:53 PM 82.0 °F 83.1 °F 63.0 °F 52% 30.01 in 10.0 mi Variable 3.5 mph - N/A   Clear
2:53 PM 84.0 °F 84.5 °F 62.1 °F 47% 29.99 in 10.0 mi Calm Calm - N/A   Mostly Cloudy
3:53 PM 82.9 °F 83.3 °F 61.0 °F 47% 29.96 in 10.0 mi Calm Calm - N/A   Mostly Cloudy
4:53 PM 81.0 °F 83.0 °F 66.0 °F 60% 29.97 in 10.0 mi ESE 4.6 mph - N/A   Mostly Cloudy
5:53 PM 81.0 °F 83.3 °F 66.9 °F 62% 29.97 in 10.0 mi East 4.6 mph - N/A   Partly Cloudy
6:53 PM 79.0 °F - 68.0 °F 69% 29.96 in 10.0 mi ESE 4.6 mph - N/A   Partly Cloudy
7:53 PM 77.0 °F - 68.0 °F 74% 29.96 in 10.0 mi Calm Calm - N/A   Clear
8:53 PM 75.9 °F - 68.0 °F 76% 29.96 in 10.0 mi Calm Calm - N/A   Partly Cloudy
9:53 PM 75.0 °F - 69.1 °F 82% 29.97 in 10.0 mi Calm Calm - N/A   Scattered Clouds
10:53 PM 75.9 °F - 69.1 °F 79% 29.96 in 10.0 mi SSE 4.6 mph - N/A   Scattered Clouds
11:53 PM 73.0 °F - 69.1 °F 87% 29.96 in 10.0 mi East 3.5 mph - N/A   Scattered Clouds